[[{"header":{"parameterUnit":"m.s-1","parameterCategory":1,"la1":30.2991,"la2":30.254,"lo1":-89.0895,"lo2":-89.0444,"dy":0.0017,"dx":0.0017,"nx":28,"ny":28,"refTime":"2023-10-18T21:00:00:Z","depth":0,"parameterNumber":2,"parameterNumberName":"U-component_of_WINDS"},"data":[0,0,0,0,0,0,0,0,0,0,0,0,0,0,0,0,0,0,0,0,0,0,0,0,0,0,0,0,0,0,0,0,0,0,0,0,0,0,0,0,0,0,0,0,0,0,0,0,0,0,0,0,0,0,0,0,0,0,-0.2825,-0.2825,0,-0.2837,-0.2837,-0.2837,-0.2829,-0.2829,-0.2829,-0.2828,-0.2839,-0.284,-0.284,0,0,0,0,0,0,0,0,0,0,0,0,0,-0.2795,-0.2795,-0.2825,-0.2825,-0.2825,-0.2837,-0.2837,-0.2837,-0.2829,-0.2829,-0.2829,-0.2828,-0.2839,-0.284,-0.284,0,0,0,0,0,0,0,0,0,0,0,0,0,-0.2807,-0.2795,-0.2825,-0.2823,-0.2823,-0.2837,-0.2837,-0.2837,-0.283,-0.2829,-0.2828,-0.2828,-0.2839,-0.284,-0.284,-0.2857,0,0,-0.2843,-0.2844,0,0,0,0,0,0,0,0,-0.2807,-0.2808,-0.2823,-0.2823,-0.2823,-0.2831,-0.283,-0.2844,-0.283,-0.2827,-0.2828,-0.2828,-0.2837,-0.2838,-0.2841,-0.2857,-0.2857,-0.2843,-0.2844,-0.2844,-0.2845,0,0,0,0,0,0,0,-0.2806,-0.2808,-0.283,-0.2823,-0.2823,-0.2821,-0.2822,-0.2833,-0.2835,-0.2827,-0.2827,-0.2828,-0.2837,-0.284,-0.2841,-0.2858,-0.2843,-0.2844,-0.2845,-0.2845,-0.2886,-0.2887,0,0,0,0,0,0,-0.2805,-0.2807,-0.2829,-0.283,-0.2813,-0.2822,-0.2823,-0.2829,-0.2834,-0.2835,-0.2829,-0.2828,-0.2839,-0.284,-0.2842,-0.286,-0.2844,-0.2845,-0.2846,-0.2886,-0.2887,-0.2887,0,0,0,0,0,0,-0.2805,-0.2807,-0.2829,-0.2818,-0.2821,-0.2823,-0.2829,-0.2829,-0.2833,-0.2836,-0.2836,-0.2832,-0.2839,-0.284,-0.2853,-0.286,-0.2846,-0.2846,-0.2885,-0.2886,-0.2887,-0.2897,0,0,0,0,0,0,-0.2804,-0.2807,-0.2813,-0.2819,-0.2822,-0.284,-0.283,-0.283,-0.2835,-0.2834,-0.2839,-0.2839,-0.2838,-0.2851,-0.2854,-0.2861,-0.2847,-0.2885,-0.2886,-0.2887,-0.2896,-0.2898,-0.29,0,0,0,0,0,-0.2803,-0.2816,-0.2814,-0.2816,-0.283,-0.284,-0.2842,-0.2841,-0.2835,-0.2842,-0.2843,-0.2839,-0.2859,-0.2853,-0.2855,-0.2863,-0.2884,-0.2885,-0.2887,-0.2895,-0.2898,-0.29,0,0,0,0,0,0,-0.2811,-0.2816,-0.2814,-0.283,-0.2835,-0.2839,-0.2847,-0.2844,-0.2851,-0.2849,-0.2848,-0.2849,-0.2862,-0.2864,-0.2856,-0.2879,-0.2871,-0.2872,-0.2876,-0.2879,-0.2881,-0.2879,-0.2848,0,0,0,0,0,-0.2815,-0.2824,-0.2828,-0.2841,-0.2843,-0.2845,-0.2849,-0.2848,-0.2853,-0.2855,-0.2858,-0.2863,-0.287,-0.2875,-0.2882,-0.2897,-0.2897,-0.2904,-0.2905,-0.2907,-0.2908,-0.2915,-0.2918,-0.2891,-0.2891,-0.2891,0,0,-0.2822,-0.2826,-0.2832,-0.2842,-0.2846,-0.2855,-0.2847,-0.2856,-0.2862,-0.2857,-0.2868,-0.287,-0.2876,-0.2889,-0.2895,-0.2891,-0.2916,-0.2909,-0.291,-0.291,-0.2917,-0.2919,-0.2922,-0.2892,-0.2892,-0.2892,0,0,-0.284,-0.2845,-0.2855,-0.286,-0.2866,-0.2866,-0.2869,-0.2874,-0.2875,-0.2887,-0.2883,-0.289,-0.2903,-0.2907,-0.291,-0.293,-0.2925,-0.2932,-0.2942,-0.2949,-0.2951,-0.2952,-0.2958,-0.2961,-0.2933,-0.2933,-0.2933,0,-0.2848,-0.2861,-0.2861,-0.2871,-0.2875,-0.2872,-0.2882,-0.2886,-0.2894,-0.2897,-0.2892,-0.2908,-0.2912,-0.2925,-0.293,-0.2934,-0.2936,-0.2931,-0.2951,-0.2952,-0.2954,-0.2959,-0.2962,-0.2934,-0.2934,-0.2934,-0.2934,0,-0.2871,-0.288,-0.2888,-0.2896,-0.2901,-0.2911,-0.2912,-0.2918,-0.2917,-0.2918,-0.2929,-0.2933,-0.2941,-0.2944,-0.2943,-0.2958,-0.2955,-0.2951,-0.2943,-0.2957,-0.2962,-0.2964,-0.2935,-0.2935,-0.2935,-0.2934,0,0,-0.2893,-0.2901,-0.2904,-0.2907,-0.2914,-0.292,-0.293,-0.2938,-0.2942,-0.2948,-0.2955,-0.2967,-0.2963,-0.2967,-0.2966,-0.2972,-0.2986,-0.2967,-0.2967,-0.2969,-0.3001,-0.3003,-0.3006,-0.2984,-0.2984,-0.2985,-0.3,0,-0.291,-0.2928,-0.2928,-0.2943,-0.2951,-0.2948,-0.2956,-0.2961,-0.2962,-0.2969,-0.2971,-0.2978,-0.2973,-0.2975,-0.2981,-0.2983,-0.2992,-0.2982,-0.299,-0.299,-0.2987,-0.3009,-0.3011,-0.3026,-0.3003,-0.3003,-0.3003,0,-0.2932,-0.2939,-0.2955,-0.296,-0.2963,-0.2971,-0.2978,-0.2984,-0.2989,-0.299,-0.2995,-0.2993,-0.3002,-0.2995,-0.3007,-0.3,-0.3004,-0.3005,-0.3006,-0.3005,-0.2997,-0.3008,-0.3031,-0.3033,-0.3007,-0.3006,-0.3006,0,-0.2945,-0.2959,-0.297,-0.2973,-0.2979,-0.2984,-0.2987,-0.2992,-0.2996,-0.3002,-0.3005,-0.3012,-0.3015,-0.302,-0.302,-0.3015,-0.3033,-0.3025,-0.3033,-0.3032,-0.3035,-0.3035,-0.3058,-0.304,-0.304,-0.304,-0.304,0,-0.2964,-0.2974,-0.2976,-0.2982,-0.2993,-0.2993,-0.3004,-0.3006,-0.301,-0.3017,-0.3015,-0.3021,-0.3022,-0.3028,-0.3028,-0.3038,-0.304,-0.304,-0.304,-0.3039,-0.3039,-0.3041,-0.3039,-0.304,-0.304,-0.304,-0.304,0,-0.298,-0.2982,-0.2993,-0.2999,-0.3,-0.3008,-0.3012,-0.3018,-0.302,-0.3028,-0.303,-0.3033,-0.304,-0.3041,-0.3049,-0.305,-0.3061,-0.306,-0.3059,-0.3059,-0.3065,-0.3064,-0.3089,-0.3092,-0.3073,-0.3073,-0.3073,0,-0.299,-0.2998,-0.3004,-0.3008,-0.3012,-0.3019,-0.3024,-0.3024,-0.3029,-0.3035,-0.3041,-0.3048,-0.3054,-0.3066,-0.3068,-0.3074,-0.3073,-0.3081,-0.3074,-0.3073,-0.3071,-0.307,-0.3071,-0.3082,-0.3082,-0.3082,-0.3082,0,-0.3009,-0.301,-0.3016,-0.3023,-0.3029,-0.3035,-0.304,-0.3044,-0.3045,-0.305,-0.3058,-0.3062,-0.3071,-0.3078,-0.3085,-0.3087,-0.3085,-0.3085,-0.3087,-0.3086,-0.3085,-0.3084,-0.3062,-0.3084,-0.3084,-0.3084,-0.3084,-0.3084,-0.3022,-0.3028,-0.3033,-0.3041,-0.3045,-0.305,-0.3056,-0.3058,-0.3065,-0.3072,-0.3072,-0.308,-0.3085,-0.3093,-0.3096,-0.3103,-0.31,-0.3103,-0.3103,-0.3103,-0.3104,-0.3085,-0.3104,-0.3104,-0.3104,-0.3104,-0.3104,0,-0.3039,-0.3043,-0.305,-0.3057,-0.3063,-0.3061,-0.3067,-0.3071,-0.3079,-0.3083,-0.3089,-0.3098,-0.3105,-0.3108,-0.3114,-0.3118,-0.3117,-0.312,-0.3119,-0.312,-0.3106,-0.3104,-0.3121,-0.3121,-0.3121,-0.3121,-0.3121,-0.3121,-0.3049,-0.3059,-0.306,-0.3072,-0.3075,-0.3084,-0.3087,-0.3091,-0.3095,-0.3105,-0.3111,-0.3113,-0.3117,-0.3123,-0.3129,-0.313,-0.3132,-0.3135,-0.3135,-0.3122,-0.3121,-0.3119,-0.3116,-0.3136,-0.3136,-0.3148,-0.3148,-0.3148]},{"header":{"parameterUnit":"m.s-1","parameterCategory":1,"la1":30.2991,"la2":30.254,"lo1":-89.0895,"lo2":-89.0444,"dy":0.0017,"dx":0.0017,"nx":28,"ny":28,"refTime":"2023-10-18T21:00:00:Z","depth":0,"parameterNumber":3,"parameterNumberName":"V-component_of_WINDS"},"data":[0,0,0,0,0,0,0,0,0,0,0,0,0,0,0,0,0,0,0,0,0,0,0,0,0,0,0,0,0,0,0,0,0,0,0,0,0,0,0,0,0,0,0,0,0,0,0,0,0,0,0,0,0,0,0,0,0,0,3.4125,3.4123,0,3.3891,3.3888,3.3885,3.3776,3.3776,3.3776,3.3777,3.3529,3.3523,3.3516,0,0,0,0,0,0,0,0,0,0,0,0,0,3.4472,3.4466,3.4126,3.4123,3.412,3.3891,3.3888,3.3885,3.3776,3.3776,3.3776,3.3777,3.3532,3.3524,3.3516,0,0,0,0,0,0,0,0,0,0,0,0,0,3.4288,3.4464,3.4126,3.4038,3.4028,3.3892,3.3888,3.3884,3.3776,3.3776,3.3776,3.3777,3.3534,3.3525,3.3515,3.3446,0,0,3.3484,3.3479,0,0,0,0,0,0,0,0,3.4298,3.4275,3.4054,3.4044,3.4032,3.3863,3.3919,3.3737,3.3776,3.3871,3.3777,3.3777,3.364,3.3621,3.3576,3.3435,3.3424,3.3483,3.3477,3.3472,3.3469,0,0,0,0,0,0,0,3.4311,3.4284,3.4032,3.4051,3.4038,3.4008,3.3982,3.3884,3.3757,3.3863,3.3855,3.3829,3.3634,3.3586,3.357,3.3421,3.3483,3.3474,3.3468,3.3464,3.3208,3.3207,0,0,0,0,0,0,3.4339,3.4296,3.404,3.4025,3.4169,3.4001,3.3972,3.3917,3.3757,3.3734,3.3829,3.3824,3.3603,3.3582,3.356,3.3468,3.3472,3.3463,3.3457,3.3209,3.3208,3.3207,0,0,0,0,0,0,3.4347,3.4318,3.4049,3.4158,3.4122,3.3995,3.3934,3.3912,3.3864,3.3732,3.3708,3.3804,3.3603,3.3575,3.3475,3.3458,3.3458,3.3449,3.3209,3.3208,3.3207,3.3284,0,0,0,0,0,0,3.4358,3.4321,3.4296,3.4159,3.4117,3.3971,3.3933,3.3907,3.3848,3.384,3.3702,3.3679,3.3601,3.3491,3.3465,3.3444,3.3441,3.321,3.3209,3.3208,3.3282,3.3285,3.3288,0,0,0,0,0,3.437,3.4326,3.4295,3.4265,3.4083,3.397,3.3946,3.3858,3.3847,3.3819,3.3733,3.3684,3.3465,3.3482,3.3452,3.3427,3.3211,3.3209,3.3208,3.3281,3.3285,3.3288,0,0,0,0,0,0,3.4463,3.4307,3.4271,3.4181,3.409,3.3952,3.3914,3.3866,3.3774,3.3771,3.3664,3.3633,3.3543,3.3475,3.3497,3.3351,3.3333,3.3325,3.3399,3.3401,3.3404,3.3422,3.3433,0,0,0,0,0,3.4473,3.4397,3.4264,3.4197,3.4154,3.4042,3.399,3.393,3.3831,3.3791,3.3698,3.3601,3.351,3.3452,3.3361,3.3272,3.3239,3.324,3.3243,3.3247,3.324,3.3185,3.3183,3.3202,3.3202,3.3202,0,0,3.4493,3.4398,3.4356,3.4214,3.4136,3.4057,3.401,3.3929,3.3868,3.3778,3.3678,3.3607,3.3491,3.3396,3.335,3.3337,3.3228,3.3244,3.3248,3.324,3.3183,3.3182,3.318,3.32,3.3201,3.3201,0,0,3.4488,3.441,3.4345,3.4269,3.4152,3.4078,3.4063,3.3931,3.3881,3.378,3.3709,3.3634,3.3481,3.34,3.334,3.3303,3.3252,3.3276,3.3291,3.3239,3.3237,3.3235,3.3219,3.3215,3.3271,3.3271,3.3271,0,3.4527,3.4407,3.4317,3.4239,3.4177,3.4094,3.4025,3.3954,3.3813,3.3771,3.3759,3.3563,3.348,3.3363,3.3355,3.3309,3.3285,3.3291,3.3245,3.3242,3.3239,3.3223,3.3217,3.3275,3.3274,3.3274,3.3274,0,3.4459,3.4377,3.4338,3.4205,3.4139,3.4066,3.3963,3.3906,3.3852,3.3778,3.3674,3.3571,3.3457,3.3425,3.3371,3.33,3.3296,3.3266,3.3245,3.3242,3.3225,3.3218,3.328,3.3278,3.3277,3.3276,0,0,3.4506,3.4324,3.4311,3.4249,3.4114,3.4047,3.3969,3.3859,3.3811,3.3716,3.3646,3.3517,3.3488,3.3419,3.3355,3.331,3.3284,3.3285,3.328,3.3286,3.3196,3.3217,3.3212,3.325,3.3249,3.3248,3.3204,0,3.448,3.434,3.4256,3.4148,3.4068,3.3987,3.3919,3.3827,3.3756,3.3676,3.3596,3.3506,3.3476,3.3434,3.3385,3.3298,3.3264,3.33,3.3181,3.3178,3.3211,3.3203,3.3226,3.319,3.3197,3.3196,3.3195,0,3.4432,3.4341,3.4225,3.4097,3.406,3.4001,3.3891,3.3818,3.3711,3.3661,3.3585,3.352,3.3432,3.342,3.3294,3.332,3.3267,3.3216,3.3213,3.3196,3.3185,3.3184,3.3177,3.3171,3.3184,3.3185,3.3186,0,3.4475,3.4323,3.4233,3.4182,3.4031,3.3991,3.3925,3.3818,3.3757,3.3661,3.3619,3.3514,3.3455,3.3374,3.3281,3.3282,3.3164,3.3145,3.3118,3.312,3.3095,3.3098,3.3077,3.3065,3.3065,3.3066,3.3066,0,3.4454,3.4386,3.425,3.4195,3.4115,3.4018,3.3941,3.3868,3.3774,3.3701,3.3624,3.3557,3.344,3.3358,3.3285,3.319,3.3165,3.3121,3.3102,3.3126,3.3132,3.3088,3.3087,3.3064,3.3064,3.3065,3.3065,0,3.4488,3.4394,3.4291,3.4156,3.412,3.4067,3.395,3.3892,3.3817,3.3725,3.3698,3.3579,3.3477,3.3378,3.3242,3.3192,3.3098,3.3074,3.3135,3.3123,3.3101,3.3104,3.305,3.3036,3.3037,3.3037,3.3037,0,3.448,3.4426,3.4285,3.4232,3.4168,3.4083,3.402,3.3922,3.3858,3.3731,3.3687,3.3581,3.349,3.3331,3.3231,3.3125,3.3096,3.3085,3.308,3.3106,3.3093,3.3096,3.3089,3.3087,3.3088,3.3088,3.3088,0,3.4475,3.4431,3.4344,3.424,3.4167,3.408,3.399,3.395,3.3834,3.3766,3.3662,3.3592,3.3453,3.3346,3.3229,3.3158,3.3103,3.3091,3.3079,3.3102,3.3138,3.3116,3.3139,3.3092,3.3092,3.3091,3.3091,3.3091,3.4486,3.4433,3.4325,3.423,3.4152,3.4069,3.4007,3.3924,3.3837,3.3717,3.3663,3.3558,3.3449,3.3286,3.3216,3.313,3.3116,3.3099,3.3094,3.3091,3.3095,3.3155,3.3109,3.3108,3.3108,3.3108,3.3108,0,3.4474,3.4401,3.4315,3.4191,3.4116,3.4073,3.397,3.3909,3.3818,3.3722,3.3634,3.3513,3.3409,3.3301,3.319,3.3142,3.3113,3.3116,3.3117,3.3101,3.3115,3.3136,3.3141,3.3141,3.3141,3.3141,3.3141,3.3141,3.446,3.4367,3.431,3.4176,3.4102,3.4,3.3945,3.3867,3.3789,3.3659,3.3573,3.3503,3.3401,3.3282,3.3184,3.3154,3.3116,3.3125,3.3088,3.3103,3.3101,3.3099,3.3117,3.3118,3.3118,3.308,3.308,3.308]}]]